Location: Prairie View Elementary School
(39.8322°N, 99.5698°W)
Time: 00:52:42
(UTC+00:00)

COSMO-SKYMED 1 - Pass Details

Date: 08 December 2019
Orbit: 621 x 623 km, 97.9° (Epoch: 20 January)

Event Time Altitude Azimuth Distance (km) Brightness Sun altitude
Rises 11:32:15 0° 155° (SSE) 2,890 6.5 -25.1°
Reaches altitude 10° 11:34:27 10° 151° (SSE) 1,988 5.6 -24.7°
Maximum altitude 11:38:40 54° 74° (ENE) 758 3.2 -23.9°
Enters shadow 11:41:24 21° 3° (N) 1,416 4.3 -23.4°
